This is the latest recevied weather packets stored in our database for station/object KFYV. If no packets are shown the sender has not sent any weather packets the latest 10 day(s).
| Time | Temp. | Humidity | Pressure | Rain* | Wind** | Luminosity | Snow |
|---|---|---|---|---|---|---|---|
| 1777164207 | 18.89° C | 82% | 1008.5 hPa | - | - | - | - |
| 1777163607 | 20° C | 77% | 1007.5 hPa | - | - | - | - |
| 1777163009 | 20° C | 77% | 1007.5 hPa | - | - | - | - |
| 1777162414 | 20° C | 77% | 1007.1 hPa | - | - | - | - |
| 1777161806 | 20° C | 77% | 1007.8 hPa | - | - | - | - |
| 1777161206 | 20.56° C | 73% | 1007.5 hPa | - | - | - | - |
| 1777160612 | 20.56° C | 73% | 1007.5 hPa | - | - | - | - |
| 1777160010 | 20.56° C | 73% | 1007.8 hPa | - | - | - | - |
| 1777159412 | 20.56° C | 73% | 1007.8 hPa | - | - | - | - |
| 1777158812 | 21.67° C | 64% | 1007.8 hPa | - | - | - | - |
| 1777158212 | 22.78° C | 56% | 1007.5 hPa | - | - | - | - |
| 1777157612 | 22.78° C | 56% | 1007.5 hPa | - | - | - | - |
| 1777157011 | 22.78° C | 56% | 1007.5 hPa | - | - | - | - |
| 1777156413 | 25° C | 57% | 1007.5 hPa | - | - | - | - |
| 1777155810 | 25° C | 57% | 1007.5 hPa | - | - | - | - |
| 1777155210 | 25° C | 57% | 1007.5 hPa | - | - | - | - |
| 1777154609 | 25° C | 57% | 1007.5 hPa | - | - | - | - |
| 1777154010 | 25.56° C | 54% | 1007.8 hPa | - | - | - | - |
| 1777153408 | 25.56° C | 54% | 1007.8 hPa | - | - | - | - |
| 1777152812 | 25.56° C | 54% | 1007.8 hPa | - | - | - | - |
| 1777152211 | 25.56° C | 54% | 1007.8 hPa | - | - | - | - |
| 1777151608 | 25.56° C | 54% | 1007.8 hPa | - | - | - | - |
| 1777151013 | 25.56° C | 54% | 1007.8 hPa | - | - | - | - |
| 1777150409 | 25.56° C | 57% | 1008.5 hPa | - | - | - | - |
| 1777149808 | 25.56° C | 57% | 1008.5 hPa | - | - | - | - |
* Rain since midnight (hover to see other rain measurements)
** Current wind speed in m/s (hover to see current wind gust speed)